Find Starlink 30611

NORAD ID: 58108 Int'l Des: 2023-161 Owner: SPXS Country: US Constellation: starlink operational
LEOCIRCULAR

Current View

Loading 3D Globe...

About Starlink 30611

Starlink 30611 (NORAD 58108) is a starlink constellation satellite (v2 mini) launched Oct 21, 2023 by SPXS of US. It operates in LEO, CIRCULAR orbit with a mass of 730.00 kg.

About Starlink 30611

Description loading...

Upcoming Passes

Passes for default location (London). Set your location on the main map for personalized predictions.

Altitude History

Loading altitude history...

Two-Line Element Set

1 58108U 23161M 26172.87959687 -.00000295 00000-0 24103-5 0 9994
2 58108 53.1601 27.1714 0001004 86.3426 273.7692 15.34399421150571
Epoch: Jun 21, 2026 • Age: 37 hours

Current Status

Altitude 477.8 km
Velocity 7.63 km/s
Sub-Earth Point -43.31°S, 178.53°W
Launch Date Oct 21, 2023
Age 2.6 years
Type internet

Technical Details

Classification Payload
Mass 730.00 kg
Dry Mass 700.00 kg
Total Mass 730.00 kg
Length 0.30 m
Diameter 4.10 m
Span 29.00 m
Shape Box + pan
Manufacturer SPXS
Bus Type Starlink V2M
Phase Status In Orbit
Owner/State SPXS/US

Most Searched